| time (UTC) | temp F | wind direction | speed MPH | gust MPH | rain 1hr in | rain 24hr in | rain mn in | humidity % | barometer mb |
| 20260502211514 | 43 | 168 | 0.0 | 0.0 | 0.00 | 0.26 | 0.26 | 91 | 1009.0 |
| 20260502210011 | 43 | 299 | 0.0 | 7.0 | 0.00 | 0.26 | 0.26 | 90 | 1008.9 |
| 20260502204511 | 43 | 359 | 0.0 | 0.0 | 0.01 | 0.26 | 0.26 | 89 | 1008.8 |
| 20260502203010 | 43 | 289 | 0.0 | 7.0 | 0.02 | 0.26 | 0.26 | 89 | 1008.9 |
| 20260502201511 | 42 | 12 | 0.0 | 0.0 | 0.04 | 0.26 | 0.26 | 93 | 1009.1 |
| 20260502200009 | 41 | 359 | 0.0 | 0.0 | 0.05 | 0.26 | 0.26 | 92 | 1009.2 |
| 20260502194509 | 40 | 340 | 0.0 | 1.0 | 0.06 | 0.25 | 0.25 | 92 | 1009.2 |
| 20260502193015 | 40 | 359 | 0.0 | 0.0 | 0.07 | 0.24 | 0.24 | 93 | 1009.2 |
| 20260502191507 | 40 | 316 | 0.0 | 0.0 | 0.05 | 0.22 | 0.22 | 93 | 1009.3 |
| 20260502190008 | 40 | 258 | 0.0 | 0.0 | 0.04 | 0.20 | 0.20 | 93 | 1009.4 |
| 20260502184507 | 40 | 258 | 0.0 | 2.0 | 0.03 | 0.19 | 0.19 | 91 | 1009.3 |
| 20260502183007 | 41 | 201 | 0.0 | 6.0 | 0.02 | 0.17 | 0.17 | 85 | 1009.2 |
| 20260502181517 | 45 | 278 | 2.0 | 12.0 | 0.02 | 0.17 | 0.17 | 85 | 1008.9 |
| 20260502163102 | 42 | 335 | 0.0 | 11.0 | 0.03 | 0.12 | 0.12 | 84 | 1008.9 |
| 20260502161606 | 47 | 191 | 0.0 | 6.0 | 0.00 | 0.09 | 0.09 | 80 | 1008.8 |
| 20260502160105 | 46 | 116 | 0.0 | 0.0 | 0.00 | 0.09 | 0.09 | 82 | 1008.7 |
| 20260502151559 | 45 | 48 | 0.0 | 0.0 | 0.00 | 0.09 | 0.09 | 85 | 1009.0 |
| 20260502150121 | 45 | 125 | 0.0 | 2.0 | 0.00 | 0.09 | 0.09 | 89 | 1009.0 |
| 20260502123034 | 39 | 199 | 0.0 | 0.0 | 0.01 | 0.09 | 0.09 | 94 | 1009.9 |
| 20260502121536 | 38 | 199 | 0.0 | 0.0 | 0.02 | 0.09 | 0.09 | 94 | 1009.9 |
| 20260502114536 | 38 | 197 | 0.0 | 0.0 | 0.03 | 0.08 | 0.08 | 94 | 1010.0 |
| 20260502113036 | 38 | 196 | 0.0 | 0.0 | 0.03 | 0.08 | 0.08 | 94 | 1009.9 |
| 20260502111531 | 38 | 197 | 0.0 | 0.0 | 0.02 | 0.07 | 0.07 | 94 | 1009.9 |
| 20260502110034 | 37 | 196 | 0.0 | 0.0 | 0.01 | 0.06 | 0.06 | 94 | 1009.8 |
| 20260502104530 | 37 | 197 | 0.0 | 0.0 | 0.00 | 0.05 | 0.05 | 94 | 1009.7 |
| 20260502103055 | 37 | 198 | 0.0 | 0.0 | 0.00 | 0.05 | 0.05 | 94 | 1009.7 |
| 20260502101542 | 37 | 197 | 0.0 | 0.0 | 0.00 | 0.05 | 0.05 | 94 | 1009.5 |
| 20260502091524 | 38 | 197 | 0.0 | 0.0 | 0.01 | 0.05 | 0.05 | 93 | 1009.3 |
| 20260502071516 | 40 | 197 | 0.0 | 0.0 | 0.00 | 0.00 | 0.00 | 88 | 1009.4 |
| 20260502070014 | 40 | 196 | 0.0 | 1.0 | 0.00 | 0.00 | 0.00 | 86 | 1009.4 |
| 20260502064508 | 40 | 196 | 0.0 | 0.0 | 0.00 | 0.00 | 0.00 | 84 | 1009.3 |
| 20260502063007 | 41 | 196 | 0.0 | 0.0 | 0.00 | 0.00 | 0.00 | 84 | 1009.2 |
| 20260502061506 | 41 | 197 | 0.0 | 0.0 | 0.00 | 0.00 | 0.00 | 84 | 1009.3 |
| 20260502060005 | 41 | 196 | 0.0 | 0.0 | 0.00 | 0.00 | 0.00 | 83 | 1009.3 |
| 20260502054505 | 41 | 196 | 0.0 | 0.0 | 0.00 | 0.00 | 0.00 | 81 | 1009.3 |
| 20260502053002 | 41 | 320 | 0.0 | 0.0 | 0.00 | 0.00 | 0.00 | 79 | 1009.2 |
| 20260502051600 | 40 | 37 | 0.0 | 0.0 | 0.00 | 0.00 | 0.00 | 81 | 1009.2 |
| 20260502050100 | 40 | 4 | 0.0 | 4.0 | 0.00 | 0.00 | 0.00 | 81 | 1009.2 |
| 20260502044557 | 40 | 359 | 0.0 | 0.0 | 0.00 | 0.00 | 0.00 | 81 | 1009.1 |
| 20260502043106 | 40 | 293 | 0.0 | 0.0 | 0.00 | 0.00 | 0.00 | 80 | 1009.0 |
| 20260502041555 | 39 | 294 | 0.0 | 0.0 | 0.00 | 0.00 | 0.00 | 79 | 1009.1 |
| 20260502040055 | 39 | 293 | 0.0 | 0.0 | 0.00 | 0.00 | 0.00 | 79 | 1009.0 |
| 20260502034554 | 40 | 293 | 0.0 | 0.0 | 0.00 | 0.00 | 0.00 | 79 | 1009.0 |
| 20260502033053 | 40 | 295 | 0.0 | 0.0 | 0.00 | 0.00 | 0.00 | 78 | 1009.0 |
| 20260502031553 | 40 | 359 | 0.0 | 0.0 | 0.00 | 0.00 | 0.00 | 77 | 1009.0 |
| 20260502030104 | 40 | 294 | 0.0 | 0.0 | 0.00 | 0.00 | 0.00 | 76 | 1009.1 |
| 20260502024552 | 41 | 293 | 0.0 | 0.0 | 0.00 | 0.00 | 0.00 | 75 | 1009.2 |
| 20260502023056 | 41 | 293 | 0.0 | 0.0 | 0.00 | 0.00 | 0.00 | 72 | 1009.2 |
| 20260502021555 | 42 | 294 | 0.0 | 1.0 | 0.00 | 0.00 | 0.00 | 70 | 1009.3 |
| 20260502020051 | 43 | 359 | 0.0 | 0.0 | 0.00 | 0.00 | 0.00 | 65 | 1009.2 |
| 20260502014550 | 44 | 294 | 0.0 | 0.0 | 0.00 | 0.00 | 0.00 | 67 | 1009.2 |
| 20260502013056 | 44 | 294 | 0.0 | 0.0 | 0.00 | 0.00 | 0.00 | 68 | 1009.2 |
| 20260502011549 | 45 | 295 | 0.0 | 0.0 | 0.00 | 0.00 | 0.00 | 65 | 1009.2 |
| 20260502010054 | 45 | 294 | 0.0 | 1.0 | 0.00 | 0.00 | 0.00 | 65 | 1009.1 |
| 20260502004549 | 46 | 294 | 0.0 | 0.0 | 0.00 | 0.00 | 0.00 | 62 | 1008.9 |
| 20260502003048 | 46 | 359 | 0.0 | 0.0 | 0.00 | 0.00 | 0.00 | 62 | 1008.7 |
| 20260502001548 | 47 | 295 | 0.0 | 0.0 | 0.00 | 0.00 | 0.00 | 60 | 1008.6 |
| 20260502000048 | 48 | 359 | 0.0 | 0.0 | 0.00 | 0.00 | 0.00 | 58 | 1008.5 |
| 20260501234551 | 49 | 297 | 0.0 | 0.0 | 0.00 | 0.00 | 0.00 | 56 | 1008.3 |
| 20260501233054 | 49 | 359 | 0.0 | 0.0 | 0.00 | 0.00 | 0.00 | 48 | 1008.2 |
| 20260501231545 | 49 | 333 | 0.0 | 0.0 | 0.00 | 0.00 | 0.00 | 48 | 1008.1 |
| 20260501230049 | 49 | 317 | 4.0 | 12.0 | 0.00 | 0.00 | 0.00 | 47 | 1008.0 |
| 20260501224550 | 50 | 309 | 2.0 | 11.0 | 0.00 | 0.00 | 0.00 | 47 | 1008.0 |
| 20260501223055 | 50 | 359 | 7.0 | 11.0 | 0.00 | 0.00 | 0.00 | 47 | 1007.9 |
| 20260501221544 | 50 | 316 | 3.0 | 8.0 | 0.00 | 0.00 | 0.00 | 47 | 1007.8 |
| 20260501220046 | 50 | 312 | 1.0 | 9.0 | 0.00 | 0.00 | 0.00 | 45 | 1007.9 |
| 20260501214544 | 50 | 354 | 0.0 | 9.0 | 0.00 | 0.00 | 0.00 | 47 | 1007.8 |
| 20260501213045 | 50 | 345 | 2.0 | 13.0 | 0.00 | 0.00 | 0.00 | 46 | 1007.8 |